| time (UTC) | temp F | wind direction | speed knots | gust knots | rain 1hr in | rain 24hr in | rain mn in | humidity % | barometer mb |
| 20260902141721 | 89 | 0.0 | 0.0 | 0.00 | 0.00 | 0.00 | 45 | 1016.8 | |
| 20260902140717 | 88 | 0.0 | 0.0 | 0.00 | 0.00 | 0.00 | 47 | 1017.0 | |
| 20260902135714 | 88 | 315 | 0.9 | 1.7 | 0.00 | 0.00 | 0.00 | 47 | 1016.9 |
| 20260902134710 | 88 | 315 | 0.9 | 1.7 | 0.00 | 0.00 | 0.00 | 49 | 1016.7 |
| 20260902133707 | 89 | 0.0 | 0.0 | 0.00 | 0.00 | 0.00 | 49 | 1017.0 | |
| 20260902132703 | 89 | 315 | 0.9 | 1.7 | 0.00 | 0.00 | 0.00 | 49 | 1017.0 |
| 20260902131659 | 88 | 315 | 0.0 | 1.7 | 0.00 | 0.00 | 0.00 | 50 | 1017.3 |
| 20260902123924 | 86 | 90 | 0.9 | 1.7 | 0.00 | 0.00 | 0.00 | 54 | 1017.5 |
| 20260902122920 | 85 | 315 | 2.6 | 2.6 | 0.00 | 0.00 | 0.00 | 55 | 1017.6 |
| 20260902121916 | 87 | 315 | 0.0 | 1.7 | 0.00 | 0.00 | 0.00 | 53 | 1017.9 |
| 20260902120913 | 86 | 135 | 1.7 | 1.7 | 0.00 | 0.00 | 0.00 | 54 | 1017.8 |
| 20260902115910 | 87 | 292 | 1.7 | 2.6 | 0.00 | 0.00 | 0.00 | 53 | 1017.9 |
| 20260902114905 | 86 | 292 | 0.9 | 2.6 | 0.00 | 0.00 | 0.00 | 55 | 1018.3 |
| 20260902113902 | 88 | 0.0 | 0.9 | 0.00 | 0.00 | 0.00 | 54 | 1018.3 | |
| 20260902112859 | 85 | 112 | 1.7 | 2.6 | 0.00 | 0.00 | 0.00 | 56 | 1018.4 |
| 20260902111414 | 87 | 315 | 0.0 | 1.7 | 0.00 | 0.00 | 0.00 | 54 | 1018.6 |
| 20260902110412 | 86 | 315 | 0.0 | 0.9 | 0.00 | 0.00 | 0.00 | 55 | 1018.5 |
| 20260902104500 | 86 | 225 | 0.0 | 0.9 | 0.00 | 0.00 | 0.00 | 56 | 1018.8 |
| 20260902103436 | 86 | 247 | 0.0 | 0.9 | 0.00 | 0.00 | 0.00 | 54 | 1018.8 |
| 20260902102426 | 82 | 90 | 0.9 | 2.6 | 0.00 | 0.00 | 0.00 | 59 | 1019.0 |
| 20260902101423 | 81 | 22 | 0.0 | 1.7 | 0.00 | 0.00 | 0.00 | 61 | 1019.0 |
| 20260902100419 | 82 | 315 | 0.9 | 1.7 | 0.00 | 0.00 | 0.00 | 59 | 1019.1 |
| 20260902095416 | 81 | 315 | 2.6 | 5.2 | 0.00 | 0.00 | 0.00 | 60 | 1019.0 |
| 20260902094412 | 80 | 337 | 2.6 | 5.2 | 0.00 | 0.00 | 0.00 | 61 | 1019.0 |
| 20260902092928 | 84 | 202 | 0.0 | 0.9 | 0.00 | 0.00 | 0.00 | 57 | 1019.2 |
| 20260902091925 | 81 | 11 | 1.7 | 3.5 | 0.00 | 0.00 | 0.00 | 61 | 1019.1 |
| 20260902090955 | 81 | 315 | 2.6 | 3.5 | 0.00 | 0.00 | 0.00 | 61 | 1019.4 |
| 20260902085912 | 81 | 0.0 | 0.9 | 0.00 | 0.00 | 0.00 | 62 | 1019.2 | |
| 20260902084907 | 80 | 0 | 1.7 | 5.2 | 0.00 | 0.00 | 0.00 | 64 | 1019.2 |
| 20260902083902 | 78 | 315 | 1.7 | 1.7 | 0.00 | 0.00 | 0.00 | 66 | 1019.1 |
| 20260902082859 | 79 | 112 | 2.6 | 7.8 | 0.00 | 0.00 | 0.00 | 66 | 1019.1 |
| 20260902081850 | 79 | 315 | 3.5 | 7.0 | 0.00 | 0.00 | 0.00 | 65 | 1019.0 |
| 20260902080910 | 79 | 315 | 1.7 | 3.5 | 0.00 | 0.00 | 0.00 | 64 | 1019.1 |
| 20260902075841 | 79 | 135 | 0.9 | 2.6 | 0.00 | 0.00 | 0.00 | 62 | 1019.0 |
| 20260902074839 | 78 | 22 | 0.0 | 1.7 | 0.00 | 0.00 | 0.00 | 67 | 1019.0 |
| 20260902073835 | 78 | 315 | 0.9 | 2.6 | 0.00 | 0.00 | 0.00 | 65 | 1018.8 |
| 20260902072827 | 76 | 315 | 2.6 | 5.2 | 0.00 | 0.00 | 0.00 | 68 | 1018.6 |
| 20260902071823 | 77 | 337 | 2.6 | 5.2 | 0.00 | 0.00 | 0.00 | 70 | 1018.7 |
| 20260902070819 | 76 | 90 | 0.0 | 1.7 | 0.00 | 0.00 | 0.00 | 72 | 1018.6 |
| 20260902065815 | 75 | 292 | 0.9 | 2.6 | 0.00 | 0.00 | 0.00 | 73 | 1018.6 |
| 20260902064813 | 75 | 315 | 2.6 | 5.2 | 0.00 | 0.00 | 0.00 | 73 | 1018.7 |
| 20260902063809 | 75 | 315 | 1.7 | 2.6 | 0.00 | 0.00 | 0.00 | 75 | 1018.5 |
| 20260902062807 | 74 | 315 | 1.7 | 2.6 | 0.00 | 0.00 | 0.00 | 75 | 1018.5 |
| 20260902061802 | 73 | 315 | 1.7 | 2.6 | 0.00 | 0.00 | 0.00 | 77 | 1018.7 |
| 20260902060752 | 72 | 315 | 1.7 | 2.6 | 0.00 | 0.00 | 0.00 | 79 | 1018.4 |
| 20260902055749 | 71 | 315 | 1.7 | 2.6 | 0.00 | 0.00 | 0.00 | 81 | 1018.5 |
| 20260902054741 | 70 | 315 | 2.6 | 2.6 | 0.00 | 0.00 | 0.00 | 82 | 1018.3 |
| 20260902053740 | 70 | 0.0 | 0.0 | 0.00 | 0.00 | 0.00 | 82 | 1018.4 | |
| 20260902052737 | 70 | 0.0 | 0.0 | 0.00 | 0.00 | 0.00 | 83 | 1018.3 | |
| 20260902051735 | 70 | 0.0 | 0.0 | 0.00 | 0.00 | 0.00 | 83 | 1018.1 | |
| 20260902050727 | 70 | 315 | 0.9 | 1.7 | 0.00 | 0.00 | 0.00 | 83 | 1017.8 |
| 20260902045722 | 70 | 0.0 | 0.0 | 0.00 | 0.00 | 0.00 | 83 | 1018.1 | |
| 20260902044718 | 70 | 0.0 | 0.0 | 0.00 | 0.00 | 0.00 | 82 | 1018.2 | |
| 20260902043714 | 70 | 0.0 | 0.0 | 0.00 | 0.00 | 0.00 | 82 | 1018.1 | |
| 20260902042712 | 70 | 0.0 | 0.0 | 0.00 | 0.00 | 0.00 | 82 | 1017.6 | |
| 20260902041708 | 70 | 0.0 | 0.0 | 0.00 | 0.00 | 0.00 | 81 | 1017.8 | |
| 20260902040705 | 70 | 0.0 | 0.9 | 0.00 | 0.00 | 0.00 | 82 | 1017.7 | |
| 20260902035700 | 70 | 0.0 | 0.0 | 0.00 | 0.00 | 0.00 | 81 | 1017.8 | |
| 20260902034326 | 71 | 315 | 1.7 | 2.6 | 0.00 | 0.00 | 0.00 | 80 | 1017.9 |
| 20260902033321 | 71 | 0.0 | 0.0 | 0.00 | 0.00 | 0.00 | 81 | 1017.8 | |
| 20260902032317 | 71 | 0.0 | 0.0 | 0.00 | 0.00 | 0.00 | 80 | 1017.8 | |
| 20260902031314 | 71 | 0.0 | 0.0 | 0.00 | 0.00 | 0.00 | 80 | 1017.7 | |
| 20260902030311 | 71 | 0.0 | 0.0 | 0.00 | 0.00 | 0.00 | 80 | 1017.9 | |
| 20260902025306 | 71 | 315 | 0.9 | 1.7 | 0.00 | 0.00 | 0.00 | 79 | 1017.8 |
| 20260902024257 | 72 | 0.0 | 0.0 | 0.00 | 0.00 | 0.00 | 79 | 1017.9 | |
| 20260902023253 | 71 | 315 | 0.9 | 1.7 | 0.00 | 0.00 | 0.00 | 80 | 1017.6 |
| 20260902022250 | 71 | 315 | 0.9 | 1.7 | 0.00 | 0.00 | 0.00 | 79 | 1017.8 |
| 20260902021301 | 72 | 315 | 0.9 | 1.7 | 0.00 | 0.00 | 0.00 | 78 | 1017.4 |
| 20260902020239 | 72 | 315 | 0.9 | 1.7 | 0.00 | 0.00 | 0.00 | 78 | 1017.7 |
| 20260902015233 | 72 | 315 | 0.9 | 1.7 | 0.00 | 0.00 | 0.00 | 78 | 1017.5 |
| 20260902014229 | 72 | 315 | 1.7 | 2.6 | 0.00 | 0.00 | 0.00 | 78 | 1017.8 |
| 20260902013226 | 73 | 315 | 2.6 | 3.5 | 0.00 | 0.00 | 0.00 | 77 | 1017.6 |
| 20260902012257 | 73 | 337 | 0.9 | 1.7 | 0.00 | 0.00 | 0.00 | 76 | 1017.8 |
| 20260902011213 | 73 | 315 | 1.7 | 2.6 | 0.00 | 0.00 | 0.00 | 77 | 1017.7 |
| 20260902010203 | 72 | 315 | 1.7 | 2.6 | 0.00 | 0.00 | 0.00 | 77 | 1017.8 |
| 20260902005200 | 73 | 315 | 1.7 | 2.6 | 0.00 | 0.00 | 0.00 | 77 | 1017.7 |
| 20260902004156 | 73 | 315 | 0.9 | 1.7 | 0.00 | 0.00 | 0.00 | 77 | 1018.1 |
| 20260902003152 | 73 | 315 | 1.7 | 2.6 | 0.00 | 0.00 | 0.00 | 77 | 1017.8 |
| 20260902002149 | 73 | 315 | 0.9 | 1.7 | 0.00 | 0.00 | 0.00 | 77 | 1017.8 |
| 20260902001137 | 73 | 315 | 0.0 | 1.7 | 0.00 | 0.00 | 0.00 | 78 | 1017.8 |
| 20260902000136 | 73 | 315 | 0.0 | 1.7 | 0.00 | 0.00 | 0.00 | 78 | 1017.8 |
| 20260901235130 | 73 | 315 | 0.9 | 1.7 | 0.00 | 0.00 | 0.00 | 76 | 1017.7 |
| 20260901234127 | 73 | 315 | 0.9 | 2.6 | 0.00 | 0.00 | 0.00 | 76 | 1018.1 |
| 20260901233124 | 74 | 315 | 0.9 | 3.5 | 0.00 | 0.00 | 0.00 | 76 | 1017.7 |
| 20260901232116 | 74 | 0.0 | 0.0 | 0.00 | 0.00 | 0.00 | 75 | 1017.5 | |
| 20260901231111 | 74 | 0.0 | 0.0 | 0.00 | 0.00 | 0.00 | 76 | 1017.8 | |
| 20260901230107 | 74 | 337 | 0.0 | 1.7 | 0.00 | 0.00 | 0.00 | 76 | 1017.7 |
| 20260901225104 | 74 | 315 | 0.9 | 1.7 | 0.00 | 0.00 | 0.00 | 76 | 1018.2 |
| 20260901224100 | 74 | 315 | 0.0 | 1.7 | 0.00 | 0.00 | 0.00 | 76 | 1018.1 |
| 20260901222311 | 75 | 315 | 1.7 | 2.6 | 0.00 | 0.00 | 0.00 | 74 | 1017.6 |
| 20260901221309 | 74 | 315 | 1.7 | 2.6 | 0.00 | 0.00 | 0.00 | 75 | 1017.6 |
| 20260901220324 | 74 | 315 | 1.7 | 2.6 | 0.00 | 0.00 | 0.00 | 75 | 1017.4 |
| 20260901215300 | 74 | 315 | 0.9 | 2.6 | 0.00 | 0.00 | 0.00 | 75 | 1017.6 |
| 20260901212223 | 75 | 337 | 1.7 | 2.6 | 0.00 | 0.00 | 0.00 | 73 | 1017.6 |
| 20260901205558 | 75 | 315 | 1.7 | 2.6 | 0.00 | 0.00 | 0.00 | 72 | 1017.6 |
| 20260901202731 | 76 | 315 | 0.9 | 1.7 | 0.00 | 0.00 | 0.00 | 71 | 1017.4 |
| 20260901201730 | 77 | 315 | 0.9 | 1.7 | 0.00 | 0.00 | 0.00 | 70 | 1017.4 |
| 20260901200744 | 77 | 315 | 0.9 | 1.7 | 0.00 | 0.00 | 0.00 | 70 | 1017.4 |
| 20260901195305 | 77 | 315 | 0.9 | 2.6 | 0.00 | 0.00 | 0.00 | 70 | 1017.2 |
| 20260901194251 | 77 | 315 | 1.7 | 2.6 | 0.00 | 0.00 | 0.00 | 69 | 1017.1 |
| 20260901193248 | 78 | 0.0 | 0.0 | 0.00 | 0.00 | 0.00 | 68 | 1017.3 | |
| 20260901192306 | 78 | 315 | 0.9 | 1.7 | 0.00 | 0.00 | 0.00 | 68 | 1017.1 |
| 20260901191238 | 78 | 315 | 0.9 | 1.7 | 0.00 | 0.00 | 0.00 | 68 | 1017.0 |
| 20260901190235 | 78 | 315 | 0.9 | 1.7 | 0.00 | 0.00 | 0.00 | 67 | 1016.9 |
| 20260901185247 | 79 | 0.0 | 0.0 | 0.00 | 0.00 | 0.00 | 66 | 1016.6 | |
| 20260901184225 | 79 | 0.0 | 0.0 | 0.00 | 0.00 | 0.00 | 66 | 1016.7 | |
| 20260901183220 | 79 | 0.0 | 0.0 | 0.00 | 0.00 | 0.00 | 65 | 1016.7 | |
| 20260901182216 | 80 | 0.0 | 0.0 | 0.00 | 0.00 | 0.00 | 65 | 1016.6 | |
| 20260901181212 | 81 | 0.0 | 0.0 | 0.00 | 0.00 | 0.00 | 63 | 1016.5 | |
| 20260901175553 | 82 | 0.0 | 0.9 | 0.00 | 0.00 | 0.00 | 59 | 1016.4 | |
| 20260901174549 | 82 | 315 | 0.9 | 1.7 | 0.00 | 0.00 | 0.00 | 58 | 1016.5 |
| 20260901173544 | 82 | 315 | 1.7 | 2.6 | 0.00 | 0.00 | 0.00 | 58 | 1016.2 |
| 20260901172541 | 83 | 315 | 1.7 | 2.6 | 0.00 | 0.00 | 0.00 | 57 | 1016.2 |
| 20260901171557 | 83 | 315 | 1.7 | 2.6 | 0.00 | 0.00 | 0.00 | 57 | 1016.3 |
| 20260901170535 | 83 | 315 | 1.7 | 3.5 | 0.00 | 0.00 | 0.00 | 56 | 1016.4 |
| 20260901165531 | 83 | 0 | 0.0 | 2.6 | 0.00 | 0.00 | 0.00 | 56 | 1016.4 |
| 20260901164528 | 84 | 315 | 0.0 | 0.9 | 0.00 | 0.00 | 0.00 | 56 | 1016.2 |
| 20260901163525 | 84 | 0.0 | 0.9 | 0.00 | 0.00 | 0.00 | 56 | 1016.4 | |
| 20260901161645 | 84 | 112 | 1.7 | 3.5 | 0.00 | 0.00 | 0.00 | 54 | 1016.6 |
| 20260901160100 | 84 | 337 | 1.7 | 3.5 | 0.00 | 0.00 | 0.00 | 55 | 1016.3 |
| 20260901154107 | 85 | 112 | 0.9 | 1.7 | 0.00 | 0.00 | 0.00 | 54 | 1016.3 |
| 20260901153106 | 84 | 315 | 0.9 | 1.7 | 0.00 | 0.00 | 0.00 | 55 | 1016.2 |
| 20260901152101 | 84 | 112 | 0.0 | 0.9 | 0.00 | 0.00 | 0.00 | 55 | 1016.5 |
| 20260901150746 | 84 | 135 | 2.6 | 3.5 | 0.00 | 0.00 | 0.00 | 55 | 1016.5 |
| 20260901145757 | 84 | 315 | 2.6 | 5.2 | 0.00 | 0.00 | 0.00 | 54 | 1016.7 |
| 20260901144715 | 85 | 45 | 0.9 | 1.7 | 0.00 | 0.00 | 0.00 | 54 | 1016.7 |
| 20260901143707 | 84 | 315 | 1.7 | 5.2 | 0.00 | 0.00 | 0.00 | 56 | 1016.7 |
| 20260901142725 | 84 | 315 | 4.3 | 9.6 | 0.00 | 0.00 | 0.00 | 57 | 1016.7 |